Location: Copeville
(33.0796°N, 96.4155°W)
Time: 13:15:37
(UTC+00:00)

SEEDS - Pass Details

Date: 10 April 2023
Orbit: 568 x 587 km, 97.7° (Epoch: 29 May)

Event Time Altitude Azimuth Distance (km) Brightness Sun altitude
Rises 10:07:12 0° 15° (NNE) 2,824 ? -23.6°
Reaches altitude 10° 10:09:23 10° 18° (NNE) 1,917 ? -23.2°
Maximum altitude 10:13:31 64° 100° (E) 649 ? -22.4°
Enters shadow 10:15:01 37° 169° (SSE) 918 ? -22.1°
